Weather History for KLEB - November, 2012

Change the Weather History Date:

Friday, November 30, 2012

  Actual Average Record
Temperature  
Mean Temperature 22 °F -  
Max Temperature 27 °F 39 °F 62 °F (2006)
Min Temperature 17 °F 25 °F 5 °F (2013)
Degree Days  
Heating Degree Days 43    
Moisture  
Dew Point 10 °F    
Average Humidity 60    
Maximum Humidity 74    
Minimum Humidity 46    
Precipitation  
Precipitation 0.00 in - - ()
Sea Level Pressure  
Sea Level Pressure 30.46 in    
Wind  
Wind Speed 7 mph (North)    
Max Wind Speed 12 mph    
Max Gust Speed 17 mph    
Visibility 9 miles    
Events Snow    
Averages and records for this station are not official NWS values.
T = Trace of Precipitation, MM = Missing Value Source: NWS Daily Summary

Daily Weather History Graph

Daily Weather History Graph

Search for Another Location

Airport or City:

Trip Planner

Search our weather history database for the weather conditions in past years. The results will help you decide how hot, cold, wet, or windy it might be!

Date:

Astronomy

Nov. 30, 2012 Rise Set
Actual Time 7:02 AM EST 4:13 PM EST
Civil Twilight 6:29 AM EST 4:45 PM EST
Nautical Twilight 5:54 AM EST 5:21 PM EST
Astronomical Twilight 5:19 AM EST 5:56 PM EST
Moon 6:06 PM EST 8:31 AM EST
Length of Visible Light 10h 15m
Length of Day
9h 11m
Waning Gibbous, 96% of the Moon is Illuminated
Nov 30
Waning Gibbous
Dec 6
Last Quarter
Dec 13
New
Dec 20
First Quarter
Dec 28
Full

Hourly Weather History & Observations

Time (EST) Temp. Windchill Dew Point Humidity Pressure Visibility Wind Dir Wind Speed Gust Speed Precip Events Conditions
12:38 AM 26.6 °F 20.0 °F 19.4 °F 74% 30.26 in 2.5 mi NNE 5.8 mph - 0.00 in Snow Light Snow
12:42 AM 26.6 °F 17.5 °F 19.4 °F 74% 30.26 in 3.0 mi NNE 9.2 mph - 0.00 in Snow Light Snow
12:53 AM 27.0 °F 18.0 °F 19.0 °F 72% 30.29 in 4.0 mi NNW 9.2 mph - 0.00 in Snow Light Snow
1:11 AM 26.6 °F 18.2 °F 17.6 °F 69% 30.27 in 4.0 mi North 8.1 mph 16.1 mph 0.00 in Snow Light Snow
1:19 AM 26.6 °F 16.2 °F 17.6 °F 69% 30.27 in 5.0 mi North 11.5 mph 17.3 mph 0.00 in Snow Light Snow
1:53 AM 25.0 °F 17.1 °F 14.0 °F 63% 30.32 in 10.0 mi NNW 6.9 mph - 0.00 in   Overcast
2:53 AM 25.0 °F 18.1 °F 14.0 °F 63% 30.35 in 10.0 mi Variable 5.8 mph - N/A   Overcast
3:53 AM 23.0 °F 12.4 °F 12.0 °F 63% 30.38 in 10.0 mi NNW 10.4 mph - N/A   Overcast
4:53 AM 21.0 °F 11.4 °F 10.0 °F 63% 30.41 in 10.0 mi North 8.1 mph - N/A   Overcast
5:53 AM 19.9 °F 12.1 °F 9.0 °F 62% 30.44 in 10.0 mi NNW 5.8 mph - N/A   Clear
6:53 AM 18.0 °F 8.7 °F 7.0 °F 62% 30.47 in 10.0 mi North 6.9 mph - N/A   Clear
7:53 AM 17.1 °F 7.6 °F 8.1 °F 68% 30.51 in 10.0 mi NE 6.9 mph - N/A   Clear
8:53 AM 19.0 °F 12.3 °F 8.1 °F 62% 30.53 in 10.0 mi NE 4.6 mph - N/A   Clear
9:53 AM 18.0 °F 9.8 °F 7.0 °F 62% 30.55 in 10.0 mi North 5.8 mph - N/A   Clear
10:53 AM 21.0 °F 13.4 °F 8.1 °F 57% 30.54 in 10.0 mi NE 5.8 mph - N/A   Clear
11:53 AM 21.9 °F 17.2 °F 9.0 °F 58% 30.54 in 10.0 mi NW 3.5 mph - N/A   Clear
12:53 PM 24.1 °F 19.7 °F 9.0 °F 53% 30.53 in 10.0 mi WNW 3.5 mph - N/A   Clear
1:53 PM 25.0 °F 20.7 °F 7.0 °F 46% 30.51 in 10.0 mi NE 3.5 mph - N/A   Clear
2:53 PM 25.0 °F - 7.0 °F 46% 30.51 in 10.0 mi Calm Calm - N/A   Clear
3:53 PM 23.0 °F 18.4 °F 7.0 °F 50% 30.53 in 10.0 mi Variable 3.5 mph - N/A   Clear
4:53 PM 21.9 °F 15.7 °F 6.1 °F 51% 30.53 in 10.0 mi North 4.6 mph - N/A   Clear
5:53 PM 21.0 °F 12.4 °F 5.0 °F 50% 30.56 in 10.0 mi NNE 6.9 mph - N/A   Overcast
6:53 PM 21.0 °F 12.4 °F 5.0 °F 50% 30.58 in 10.0 mi NNE 6.9 mph - N/A   Overcast
7:53 PM 19.9 °F 12.1 °F 3.9 °F 50% 30.59 in 10.0 mi NNE 5.8 mph - N/A   Overcast
8:53 PM 19.9 °F 13.4 °F 6.1 °F 55% 30.59 in 10.0 mi NE 4.6 mph - N/A   Overcast
10:53 PM 19.9 °F 13.4 °F 8.1 °F 60% 30.60 in 10.0 mi NNE 4.6 mph - N/A   Overcast
11:53 PM 19.9 °F 12.1 °F 7.0 °F 57% 30.61 in 10.0 mi North 5.8 mph - N/A   Overcast